Location: Newport
(44.6370°N, 124.0520°W)
Time: 17:35:34
(UTC-07:00)

Tiangong 2 - Pass Details

Date: 12 October 2017
Orbit: 388 x 391 km, 42.8° (Epoch: 22 October)

Event Time Altitude Azimuth Distance (km) Brightness Sun altitude
Exits shadow 05:20:51 28° 124° (SE) 759 2.9 -23.3°
Drops below altitude 10° 05:22:53 10° 94° (E) 1,422 4.9 -23.0°
Sets 05:25:03 0° 85° (E) 2,280 6.4 -22.6°
